• In Portugal
  • List of Countries
  • For 7 days
  • Water Temperature
  • Satellite Maps
  • Weather Map
  • Weather Widgets
  • user-avatar
    Login

    Hourly Weather Campo Grande

    Today, 26 May, Saturday

    Time Temperature Precipitation Wind Pressure Humidity
    00:00 +18°C° 0 mm 3 mps 713 mmHg 87%
    01:00 +18°C° 0 mm 3 mps 713 mmHg 87%
    02:00 +18°C° 0 mm 3 mps 712 mmHg 88%
    03:00 +18°C° 0 mm 2 mps 712 mmHg 89%
    04:00 +17°C° 0 mm 2 mps 713 mmHg 89%
    05:00 +17°C° 0 mm 2 mps 713 mmHg 90%
    06:00 +19°C° 0 mm 3 mps 713 mmHg 84%
    07:00 +20°C° 0 mm 3 mps 713 mmHg 79%
    08:00 +21°C° 0 mm 4 mps 714 mmHg 73%
    09:00 +23°C° 0 mm 4 mps 714 mmHg 66%
    10:00 +26°C° 0 mm 4 mps 714 mmHg 59%
    11:00 +28°C° 0 mm 4 mps 714 mmHg 52%
    12:00 +29°C° 0 mm 4 mps 714 mmHg 49%
    13:00 +29°C° 0 mm 3 mps 713 mmHg 46%
    14:00 +30°C° 0 mm 3 mps 713 mmHg 43%
    15:00 +29°C° 0 mm 2 mps 712 mmHg 48%
    16:00 +27°C° 0 mm 2 mps 712 mmHg 54%
    17:00 +25°C° 0 mm 1 mps 711 mmHg 59%
    18:00 +24°C° 0 mm 2 mps 712 mmHg 61%
    19:00 +23°C° 0 mm 2 mps 712 mmHg 63%
    20:00 +23°C° 0 mm 2 mps 712 mmHg 65%
    21:00 +21°C° 0 mm 3 mps 712 mmHg 67%
    22:00 +21°C° 0 mm 3 mps 713 mmHg 69%
    23:00 +21°C° 0 mm 3 mps 713 mmHg 72%

    Tomorrow, 27 May, Sunday

    Time Temperature Precipitation Wind Pressure Humidity
    00:00 +20°C° 0 mm 3 mps 713 mmHg 74%
    01:00 +20°C° 0 mm 3 mps 712 mmHg 77%
    02:00 +20°C° 0 mm 3 mps 712 mmHg 80%
    03:00 +19°C° 0 mm 3 mps 712 mmHg 81%
    04:00 +19°C° 0 mm 3 mps 713 mmHg 83%
    05:00 +19°C° 0 mm 3 mps 713 mmHg 84%
    06:00 +20°C° 0 mm 4 mps 714 mmHg 79%
    07:00 +21°C° 0 mm 5 mps 714 mmHg 75%
    08:00 +22°C° 0 mm 5 mps 715 mmHg 70%
    09:00 +25°C° 0 mm 5 mps 715 mmHg 63%
    10:00 +26°C° 0 mm 5 mps 716 mmHg 56%
    11:00 +28°C° 0 mm 5 mps 716 mmHg 49%
    12:00 +29°C° 0 mm 5 mps 715 mmHg 46%
    13:00 +29°C° 0 mm 5 mps 715 mmHg 43%
    14:00 +30°C° 0 mm 4 mps 714 mmHg 40%
    15:00 +28°C° 0 mm 4 mps 714 mmHg 45%
    16:00 +26°C° 0 mm 3 mps 713 mmHg 50%
    17:00 +24°C° 0 mm 2 mps 713 mmHg 55%
    18:00 +22°C° 0 mm 3 mps 713 mmHg 57%
    19:00 +21°C° 0 mm 3 mps 714 mmHg 59%
    20:00 +21°C° 0 mm 3 mps 714 mmHg 61%
    21:00 +20°C° 0 mm 3 mps 714 mmHg 64%
    22:00 +20°C° 0 mm 3 mps 714 mmHg 67%
    23:00 +19°C° 0 mm 3 mps 714 mmHg 70%

    Day after tomorrow, 28 May, Monday

    Time Temperature Precipitation Wind Pressure Humidity
    00:00 +19°C° 0 mm 3 mps 714 mmHg 73%
    01:00 +18°C° 0 mm 3 mps 713 mmHg 75%
    02:00 +18°C° 0 mm 3 mps 713 mmHg 78%
    03:00 +18°C° 0 mm 3 mps 713 mmHg 79%
    04:00 +17°C° 0 mm 3 mps 713 mmHg 80%
    05:00 +17°C° 0 mm 3 mps 713 mmHg 81%
    06:00 +18°C° 0 mm 4 mps 714 mmHg 77%
    07:00 +20°C° 0 mm 5 mps 714 mmHg 72%
    08:00 +21°C° 0 mm 5 mps 715 mmHg 68%
    09:00 +23°C° 0 mm 6 mps 715 mmHg 61%
    10:00 +24°C° 0 mm 6 mps 715 mmHg 55%
    11:00 +27°C° 0 mm 6 mps 715 mmHg 48%
    12:00 +28°C° 0 mm 5 mps 715 mmHg 46%
    13:00 +28°C° 0 mm 5 mps 714 mmHg 44%
    14:00 +29°C° 0 mm 4 mps 713 mmHg 41%
    15:00 +27°C° 0 mm 4 mps 713 mmHg 47%
    16:00 +26°C° 0 mm 3 mps 712 mmHg 52%
    17:00 +24°C° 0 mm 2 mps 712 mmHg 57%
    18:00 +22°C° 0 mm 3 mps 712 mmHg 59%
    19:00 +21°C° 0 mm 3 mps 713 mmHg 61%
    20:00 +21°C° 0 mm 4 mps 713 mmHg 63%
    21:00 +20°C° 0 mm 4 mps 713 mmHg 65%
    22:00 +20°C° 0 mm 4 mps 713 mmHg 68%
    23:00 +20°C° 0 mm 4 mps 713 mmHg 70%

    29 May, Tuesday

    Time Temperature Precipitation Wind Pressure Humidity
    00:00 +19°C° 0 mm 4 mps 713 mmHg 73%
    01:00 +19°C° 0 mm 4 mps 713 mmHg 75%
    02:00 +19°C° 0 mm 4 mps 712 mmHg 77%
    03:00 +18°C° 0 mm 4 mps 712 mmHg 78%
    04:00 +18°C° 0 mm 4 mps 712 mmHg 79%
    05:00 +18°C° 0 mm 4 mps 712 mmHg 81%
    06:00 +19°C° 0 mm 4 mps 713 mmHg 77%
    07:00 +20°C° 0 mm 5 mps 714 mmHg 73%
    08:00 +21°C° 0 mm 6 mps 714 mmHg 69%
    09:00 +23°C° 0 mm 5 mps 714 mmHg 62%
    10:00 +26°C° 0 mm 5 mps 714 mmHg 55%
    11:00 +28°C° 0 mm 5 mps 714 mmHg 48%
    12:00 +28°C° 0 mm 5 mps 714 mmHg 46%
    13:00 +29°C° 0 mm 4 mps 713 mmHg 45%
    14:00 +29°C° 0 mm 4 mps 712 mmHg 43%
    15:00 +28°C° 0 mm 3 mps 712 mmHg 48%
    16:00 +26°C° 0 mm 3 mps 712 mmHg 53%
    17:00 +25°C° 0 mm 2 mps 711 mmHg 57%
    18:00 +24°C° 0 mm 2 mps 712 mmHg 59%
    19:00 +22°C° 0 mm 3 mps 712 mmHg 60%
    20:00 +21°C° 0 mm 3 mps 712 mmHg 62%
    21:00 +21°C° 0 mm 3 mps 712 mmHg 64%
    22:00 +21°C° 0 mm 4 mps 712 mmHg 67%
    23:00 +21°C° 0 mm 4 mps 713 mmHg 69%

    30 May, Wednesday

    Time Temperature Precipitation Wind Pressure Humidity
    00:00 +21°C° 0 mm 4 mps 712 mmHg 71%
    01:00 +20°C° 0 mm 4 mps 712 mmHg 73%
    02:00 +20°C° 0 mm 3 mps 712 mmHg 76%
    03:00 +20°C° 0 mm 3 mps 712 mmHg 77%
    04:00 +19°C° 0 mm 3 mps 712 mmHg 78%
    05:00 +19°C° 0 mm 3 mps 713 mmHg 80%
    06:00 +20°C° 0 mm 4 mps 713 mmHg 76%
    07:00 +21°C° 0 mm 4 mps 714 mmHg 73%
    08:00 +22°C° 0 mm 4 mps 714 mmHg 70%
    09:00 +23°C° 0 mm 4 mps 714 mmHg 62%
    10:00 +26°C° 0 mm 4 mps 714 mmHg 54%
    11:00 +28°C° 0 mm 4 mps 714 mmHg 46%
    12:00 +28°C° 0 mm 3 mps 714 mmHg 46%
    13:00 +28°C° 0 mm 2 mps 713 mmHg 45%
    14:00 +28°C° 0 mm 2 mps 712 mmHg 45%
    15:00 +27°C° 0 mm 1 mps 712 mmHg 48%
    16:00 +26°C° 0 mm 1 mps 712 mmHg 50%
    17:00 +25°C° 0 mm 1 mps 712 mmHg 53%
    18:00 +24°C° 0 mm 1 mps 712 mmHg 55%
    19:00 +24°C° 0 mm 2 mps 712 mmHg 56%
    20:00 +23°C° 0 mm 2 mps 712 mmHg 57%
    21:00 +21°C° 0 mm 2 mps 712 mmHg 60%
    22:00 +21°C° 0 mm 2 mps 712 mmHg 62%
    23:00 +20°C° 0 mm 2 mps 712 mmHg 64%

    31 May, Thursday

    Time Temperature Precipitation Wind Pressure Humidity
    00:00 +20°C° 0 mm 2 mps 712 mmHg 67%
    01:00 +19°C° 0 mm 2 mps 711 mmHg 69%
    02:00 +19°C° 0 mm 2 mps 711 mmHg 72%
    03:00 +19°C° 0 mm 2 mps 711 mmHg 73%
    04:00 +18°C° 0 mm 2 mps 711 mmHg 75%
    05:00 +18°C° 0 mm 2 mps 711 mmHg 76%
    06:00 +19°C° 0 mm 3 mps 712 mmHg 72%
    07:00 +21°C° 0 mm 3 mps 713 mmHg 69%
    08:00 +22°C° 0 mm 3 mps 713 mmHg 65%
    09:00 +25°C° 0 mm 3 mps 713 mmHg 58%
    10:00 +27°C° 0 mm 3 mps 713 mmHg 51%
    11:00 +29°C° 0 mm 2 mps 713 mmHg 43%
    12:00 +29°C° 0 mm 2 mps 712 mmHg 42%
    13:00 +29°C° 0 mm 1 mps 712 mmHg 41%
    14:00 +29°C° 0 mm 1 mps 711 mmHg 40%
    15:00 +28°C° 0 mm 1 mps 711 mmHg 44%
    16:00 +26°C° 0 mm 1 mps 710 mmHg 48%
    17:00 +25°C° 0 mm 1 mps 710 mmHg 52%
    18:00 +24°C° 0 mm 1 mps 710 mmHg 53%
    19:00 +24°C° 0 mm 1 mps 710 mmHg 54%
    20:00 +23°C° 0 mm 1 mps 711 mmHg 56%
    21:00 +22°C° 0 mm 1 mps 711 mmHg 58%
    22:00 +22°C° 0 mm 1 mps 711 mmHg 59%
    23:00 +21°C° 0 mm 1 mps 711 mmHg 61%
    Show more